When you browse on this site, cookies collect data to enhance your experience and personalize the content and advertising you see.
Visit our Privacy Policy to learn more. By continuing to use the site, you agree to this use of cookies and data.
  • In Hungary
  • List of Countries
  • For 7 days
  • Water Temperature
  • Satellite Maps
  • Weather Map
  • News
  • Weather Widgets
  • user-avatar
    Login

    Hourly Weather Saalbach

    Today, 18 June, Tuesday

    Time Temperature Precipitation Wind Pressure Humidity
    00:00 +11°C° 0 mm 1 mps 641 mmHg 91%
    01:00 +10°C° 0 mm 2 mps 641 mmHg 90%
    02:00 +10°C° 0 mm 2 mps 640 mmHg 90%
    03:00 +9°C° 0 mm 2 mps 640 mmHg 90%
    04:00 +9°C° 0 mm 2 mps 640 mmHg 90%
    05:00 +12°C° 0 mm 1 mps 640 mmHg 86%
    06:00 +14°C° 0 mm 1 mps 641 mmHg 82%
    07:00 +14°C° 0 mm 0 mps 642 mmHg 79%
    08:00 +16°C° 0.1 mm 0 mps 642 mmHg 69%
    09:00 +21°C° 0.1 mm 1 mps 643 mmHg 60%
    10:00 +23°C° 0.1 mm 1 mps 643 mmHg 51%
    11:00 +24°C° 0.1 mm 1 mps 643 mmHg 46%
    12:00 +24°C° 0.1 mm 1 mps 643 mmHg 41%
    13:00 +25°C° 0.1 mm 1 mps 643 mmHg 35%
    14:00 +24°C° 0.1 mm 1 mps 643 mmHg 40%
    15:00 +24°C° 0.1 mm 2 mps 642 mmHg 44%
    16:00 +23°C° 0.1 mm 2 mps 642 mmHg 48%
    17:00 +21°C° 0.3 mm 1 mps 641 mmHg 60%
    18:00 +20°C° 0.3 mm 1 mps 641 mmHg 72%
    19:00 +16°C° 0.3 mm 0 mps 640 mmHg 85%
    20:00 +15°C° 0.2 mm 1 mps 640 mmHg 86%
    21:00 +14°C° 0.2 mm 1 mps 640 mmHg 88%
    22:00 +12°C° 0.2 mm 1 mps 640 mmHg 89%
    23:00 +12°C° 0.1 mm 1 mps 639 mmHg 89%

    Tomorrow, 19 June, Wednesday

    Time Temperature Precipitation Wind Pressure Humidity
    00:00 +12°C° 0.1 mm 1 mps 639 mmHg 90%
    01:00 +12°C° 0.1 mm 1 mps 639 mmHg 90%
    02:00 +12°C° 0.1 mm 1 mps 639 mmHg 90%
    03:00 +12°C° 0.1 mm 1 mps 639 mmHg 90%
    04:00 +12°C° 0.1 mm 1 mps 639 mmHg 90%
    05:00 +13°C° 0.1 mm 1 mps 639 mmHg 88%
    06:00 +14°C° 0.1 mm 1 mps 639 mmHg 86%
    07:00 +16°C° 0.1 mm 1 mps 640 mmHg 85%
    08:00 +18°C° 0.8 mm 1 mps 640 mmHg 82%
    09:00 +19°C° 0.8 mm 1 mps 640 mmHg 80%
    10:00 +20°C° 0.8 mm 1 mps 640 mmHg 77%
    11:00 +20°C° 0.7 mm 1 mps 640 mmHg 72%
    12:00 +19°C° 0.7 mm 0 mps 640 mmHg 66%
    13:00 +20°C° 0.7 mm 0 mps 640 mmHg 61%
    14:00 +21°C° 0.5 mm 1 mps 640 mmHg 63%
    15:00 +20°C° 0.5 mm 1 mps 640 mmHg 66%
    16:00 +19°C° 0.5 mm 1 mps 639 mmHg 69%
    17:00 +19°C° 0.3 mm 1 mps 639 mmHg 72%
    18:00 +18°C° 0.3 mm 1 mps 639 mmHg 75%
    19:00 +16°C° 0.3 mm 1 mps 639 mmHg 79%
    20:00 +15°C° 0 mm 1 mps 639 mmHg 79%
    21:00 +13°C° 0 mm 1 mps 639 mmHg 79%
    22:00 +12°C° 0 mm 1 mps 638 mmHg 79%
    23:00 +12°C° 0 mm 1 mps 638 mmHg 77%

    Day after tomorrow, 20 June, Thursday

    Time Temperature Precipitation Wind Pressure Humidity
    00:00 +12°C° 0 mm 1 mps 638 mmHg 76%
    01:00 +11°C° 0 mm 1 mps 638 mmHg 75%
    02:00 +11°C° 0 mm 1 mps 638 mmHg 74%
    03:00 +11°C° 0 mm 1 mps 638 mmHg 74%
    04:00 +11°C° 0 mm 1 mps 638 mmHg 74%
    05:00 +13°C° 0 mm 1 mps 639 mmHg 70%
    06:00 +14°C° 0 mm 0 mps 639 mmHg 66%
    07:00 +16°C° 0 mm 0 mps 640 mmHg 63%
    08:00 +18°C° 0 mm 0 mps 640 mmHg 56%
    09:00 +22°C° 0 mm 1 mps 641 mmHg 50%
    10:00 +24°C° 0 mm 1 mps 641 mmHg 43%
    11:00 +25°C° 0 mm 1 mps 641 mmHg 40%
    12:00 +25°C° 0 mm 1 mps 641 mmHg 37%
    13:00 +26°C° 0 mm 1 mps 641 mmHg 33%
    14:00 +24°C° 0.9 mm 1 mps 640 mmHg 46%
    15:00 +22°C° 0.9 mm 1 mps 639 mmHg 60%
    16:00 +19°C° 0.9 mm 2 mps 639 mmHg 73%
    17:00 +17°C° 2.1 mm 2 mps 638 mmHg 81%
    18:00 +15°C° 2.1 mm 2 mps 638 mmHg 88%
    19:00 +14°C° 2.1 mm 2 mps 638 mmHg 96%
    20:00 +13°C° 0.4 mm 2 mps 638 mmHg 97%
    21:00 +13°C° 0.4 mm 1 mps 639 mmHg 98%
    22:00 +11°C° 0.4 mm 0 mps 639 mmHg 99%
    23:00 +11°C° 0 mm 0 mps 639 mmHg 98%

    21 June, Friday

    Time Temperature Precipitation Wind Pressure Humidity
    00:00 +10°C° 0 mm 0 mps 639 mmHg 97%
    01:00 +10°C° 0 mm 0 mps 639 mmHg 97%
    02:00 +9°C° 0 mm 0 mps 639 mmHg 96%
    03:00 +9°C° 0 mm 0 mps 638 mmHg 96%
    04:00 +9°C° 0 mm 0 mps 638 mmHg 95%
    05:00 +10°C° 0 mm 0 mps 639 mmHg 93%
    06:00 +11°C° 0 mm 0 mps 639 mmHg 91%
    07:00 +13°C° 0 mm 0 mps 640 mmHg 89%
    08:00 +13°C° 0.1 mm 0 mps 640 mmHg 89%
    09:00 +13°C° 0.1 mm 0 mps 640 mmHg 89%
    10:00 +13°C° 0.1 mm 0 mps 640 mmHg 89%
    11:00 +15°C° 0.2 mm 1 mps 640 mmHg 81%
    12:00 +18°C° 0.2 mm 1 mps 641 mmHg 73%
    13:00 +18°C° 0.2 mm 2 mps 641 mmHg 65%
    14:00 +17°C° 0.6 mm 2 mps 641 mmHg 71%
    15:00 +17°C° 0.6 mm 2 mps 640 mmHg 76%
    16:00 +18°C° 0.6 mm 1 mps 640 mmHg 82%
    17:00 +16°C° 0.7 mm 1 mps 640 mmHg 85%
    18:00 +15°C° 0.7 mm 1 mps 640 mmHg 89%
    19:00 +15°C° 0.7 mm 1 mps 640 mmHg 92%
    20:00 +14°C° 1.3 mm 1 mps 640 mmHg 93%
    21:00 +12°C° 1.3 mm 0 mps 640 mmHg 93%
    22:00 +11°C° 1.3 mm 0 mps 640 mmHg 94%
    23:00 +11°C° 0.3 mm 0 mps 640 mmHg 94%

    22 June, Saturday

    Time Temperature Precipitation Wind Pressure Humidity
    00:00 +11°C° 0.3 mm 0 mps 640 mmHg 95%
    01:00 +11°C° 0.3 mm 0 mps 640 mmHg 95%
    02:00 +10°C° 0 mm 0 mps 640 mmHg 95%
    03:00 +10°C° 0 mm 0 mps 640 mmHg 95%
    04:00 +10°C° 0 mm 0 mps 639 mmHg 95%
    05:00 +11°C° 0 mm 0 mps 640 mmHg 93%
    06:00 +11°C° 0 mm 0 mps 640 mmHg 92%
    07:00 +12°C° 0 mm 0 mps 641 mmHg 90%
    08:00 +15°C° 0.4 mm 1 mps 641 mmHg 87%
    09:00 +16°C° 0.4 mm 1 mps 641 mmHg 83%
    10:00 +18°C° 0.4 mm 1 mps 641 mmHg 80%
    11:00 +18°C° 1.2 mm 1 mps 641 mmHg 80%
    12:00 +19°C° 1.2 mm 1 mps 641 mmHg 81%
    13:00 +19°C° 1.2 mm 1 mps 641 mmHg 81%
    14:00 +18°C° 1.5 mm 1 mps 641 mmHg 84%
    15:00 +18°C° 1.5 mm 1 mps 640 mmHg 87%
    16:00 +16°C° 1.5 mm 1 mps 640 mmHg 89%
    17:00 +15°C° 1.9 mm 1 mps 640 mmHg 92%
    18:00 +14°C° 1.9 mm 1 mps 640 mmHg 94%
    19:00 +14°C° 1.9 mm 1 mps 640 mmHg 96%
    20:00 +13°C° 0.3 mm 1 mps 640 mmHg 96%
    21:00 +12°C° 0.3 mm 1 mps 640 mmHg 96%
    22:00 +12°C° 0.3 mm 1 mps 640 mmHg 96%
    23:00 +11°C° 0.2 mm 0 mps 640 mmHg 96%

    23 June, Sunday

    Time Temperature Precipitation Wind Pressure Humidity
    00:00 +11°C° 0.2 mm 0 mps 640 mmHg 97%
    01:00 +11°C° 0.2 mm 0 mps 640 mmHg 97%
    02:00 +10°C° 0 mm 0 mps 640 mmHg 96%
    03:00 +10°C° 0 mm 1 mps 640 mmHg 95%
    04:00 +9°C° 0 mm 1 mps 640 mmHg 94%
    05:00 +11°C° 0 mm 1 mps 640 mmHg 90%
    06:00 +11°C° 0 mm 0 mps 641 mmHg 87%
    07:00 +13°C° 0 mm 0 mps 642 mmHg 84%
    08:00 +15°C° 0 mm 0 mps 643 mmHg 70%
    09:00 +20°C° 0 mm 1 mps 643 mmHg 56%
    10:00 +22°C° 0 mm 1 mps 644 mmHg 43%
    11:00 +23°C° 0 mm 1 mps 644 mmHg 42%
    12:00 +23°C° 0 mm 1 mps 644 mmHg 41%
    13:00 +24°C° 0 mm 2 mps 644 mmHg 39%
    14:00 +23°C° 0.1 mm 2 mps 644 mmHg 42%
    15:00 +23°C° 0.1 mm 2 mps 644 mmHg 46%
    16:00 +23°C° 0.1 mm 2 mps 644 mmHg 49%
    17:00 +20°C° 0.1 mm 2 mps 644 mmHg 60%
    18:00 +20°C° 0.1 mm 1 mps 643 mmHg 72%
    19:00 +18°C° 0.1 mm 1 mps 643 mmHg 83%
    20:00 +16°C° 0 mm 1 mps 643 mmHg 86%
    21:00 +14°C° 0 mm 1 mps 643 mmHg 89%
    22:00 +13°C° 0 mm 1 mps 643 mmHg 92%
    23:00 +13°C° 0 mm 1 mps 643 mmHg 91%
    Show more